Decimomannu, Italy

10:35 AM CET on February 27, 2017 (GMT +0100)
Decimomannu Mil

Weather History for LIED - July, 2013

Change the Weather History Date:

Monday, July 8, 2013

  Actual Average Record
Temperature  
Mean Temperature 77 °F -  
Max Temperature 91 °F 89 °F 101 °F (2015)
Min Temperature 63 °F 64 °F 59 °F (1997)
Cooling Degree Days 12    
Growing Degree Days 27 (Base 50)    
Moisture  
Dew Point 64 °F    
Average Humidity 74    
Maximum Humidity 94    
Minimum Humidity 27    
Precipitation  
Precipitation 0.03 in 0.01 in - ()
Sea Level Pressure  
Sea Level Pressure 30.07 in    
Wind  
Wind Speed 4 mph ()    
Max Wind Speed 18 mph    
Max Gust Speed -    
Visibility 7.3 miles    
Events Rain , Thunderstorm    
Averages and records for this station are not official NWS values.
T = Trace of Precipitation, MM = Missing Value Source: Averaged Metar Reports

Daily Weather History Graph

Daily Weather History Graph

Search for Another Location

Airport or City:

Trip Planner

Search our weather history database for the weather conditions in past years. The results will help you decide how hot, cold, wet, or windy it might be!

Date:

Astronomy

Jul. 08, 2013 Rise Set
Actual Time 6:04 AM CEST 8:53 PM CEST
Civil Twilight 5:33 AM CEST 9:25 PM CEST
Nautical Twilight 4:52 AM CEST 10:04 PM CEST
Astronomical Twilight 4:07 AM CEST 10:50 PM CEST
Moon 6:18 AM CEST (7/8) 8:46 PM CEST (7/8)
Length of Visible Light 15h 51m
Length of Day
14h 48m
New Moon, 0% of the Moon is Illuminated
Jul 8
New Moon
Jul 16
First Quarter
Jul 22
Full
Jul 29
Last Quarter
Aug 6
New

Hourly Weather History & Observations

Time (CEST) Temp. Heat Index Dew Point Humidity Pressure Visibility Wind Dir Wind Speed Gust Speed Precip Events Conditions
12:55 AM 73.4 °F - 64.4 °F 73% 30.06 in - NNE 5.8 mph - N/A   Clear
1:55 AM 69.8 °F - 66.2 °F 88% 30.06 in - NNE 3.5 mph - N/A   Clear
2:00 AM 69 °F - 65 °F 84% 30.09 in 12 mi NNE 3.5 mph - -   Clear
2:55 AM 66.2 °F - 64.4 °F 94% 30.06 in 6.2 mi WNW 3.5 mph - N/A   Partly Cloudy
3:55 AM 66.2 °F - 62.6 °F 88% 30.06 in - Calm Calm - N/A   Clear
4:55 AM 64.4 °F - 62.6 °F 94% 30.06 in - WNW 3.5 mph - N/A   Clear
5:00 AM 65 °F - 62 °F 87% 30.08 in 9 mi WNW 3.5 mph - -  
5:55 AM 62.6 °F - 60.8 °F 94% 30.06 in - NW 3.5 mph - N/A   Clear
6:55 AM 64.4 °F - 60.8 °F 88% 30.06 in - WNW 5.8 mph - N/A   Clear
7:55 AM 68.0 °F - 62.6 °F 83% 30.06 in - NW 4.6 mph - N/A   Clear
8:00 AM 68 °F - 62 °F 76% 30.08 in 12 mi NW 4.6 mph - -  
8:55 AM 71.6 °F - 62.6 °F 73% 30.06 in - West 3.5 mph - N/A   Clear
9:55 AM 78.8 °F - 60.8 °F 54% 30.06 in - West 4.6 mph - N/A   Clear
10:55 AM 84.2 °F 83.5 °F 57.2 °F 40% 30.06 in 6.2 mi West 4.6 mph - N/A   Partly Cloudy
11:00 AM 83 °F - 58 °F 32% 30.09 in 12 mi West 4.6 mph - -   Scattered Clouds
11:55 AM 87.8 °F 87.1 °F 59.0 °F 38% 30.06 in 6.2 mi SSW 5.8 mph - N/A   Scattered Clouds
12:55 PM 89.6 °F 88.9 °F 59.0 °F 36% 30.06 in 6.2 mi ESE 4.6 mph - N/A   Scattered Clouds
2:00 PM 90 °F - 61 °F 27% 30.06 in 12 mi SSE 17.3 mph - - Thunderstorm Thunderstorm
2:55 PM 87.8 °F 88.5 °F 62.6 °F 43% 30.06 in 5.0 mi SSE 18.4 mph - N/A Thunderstorm Thunderstorm
3:55 PM 75.2 °F - 68.0 °F 78% 30.12 in 6.2 mi WNW 9.2 mph - N/A Thunderstorm Thunderstorm
4:03 PM 75.2 °F - 68.0 °F 78% 30.09 in 6.2 mi West 6.9 mph - N/A Rain , Thunderstorm Light Thunderstorms and Rain
4:55 PM 71.6 °F - 68.0 °F 88% 30.09 in 6.2 mi West 5.8 mph - N/A Rain , Thunderstorm Light Thunderstorms and Rain
5:00 PM 72 °F - 68 °F 83% 30.12 in 6 mi West 5.8 mph - - Thunderstorm Light Thunderstorm
5:55 PM 71.6 °F - 68.0 °F 88% 30.06 in 6.2 mi South 3.5 mph - N/A   Partly Cloudy
6:55 PM 73.4 °F - 68.0 °F 83% 30.06 in 6.2 mi NNE 6.9 mph - N/A   Partly Cloudy
7:55 PM 75.2 °F - 66.2 °F 73% 30.09 in 6.2 mi NW 2.3 mph - N/A   Scattered Clouds
8:00 PM 74 °F - 66 °F 68% 30.09 in 7 mi NW 2.3 mph - -   Partly Cloudy
8:55 PM 73.4 °F - 69.8 °F 88% 30.09 in 6.2 mi WSW 4.6 mph - N/A   Partly Cloudy
9:55 PM 71.6 °F - 68.0 °F 88% 30.09 in 6.2 mi Calm Calm - N/A   Partly Cloudy
10:55 PM 71.6 °F - 68.0 °F 88% 30.09 in 6.2 mi Calm Calm - N/A   Partly Cloudy
11:00 PM 71 °F - 68 °F 88% 30.10 in 7 mi Calm Calm - -   Scattered Clouds
11:55 PM 69.8 °F - 66.2 °F 88% 30.06 in 6.2 mi NNE 4.6 mph - N/A   Partly Cloudy